This is the latest recevied weather packets stored in our database for station/object WX7FGZ-5. If no packets are shown the sender has not sent any weather packets the latest 1 day(s).
| Time | Temp. | Humidity | Pressure | Rain* | Wind** | Luminosity | Snow |
|---|---|---|---|---|---|---|---|
| 1778038854 | 3.33° C | 78% | 1019 hPa | 0 mm | - | 0 W/m² | - |
| 1778038255 | 3.89° C | 78% | 1018.6 hPa | 0 mm | - | 0 W/m² | - |
| 1778037354 | 3.89° C | 78% | 1018.5 hPa | 0 mm | - | 0 W/m² | - |
| 1778036755 | 3.89° C | 78% | 1018.4 hPa | 0 mm | - | 0 W/m² | - |
| 1778036454 | 3.89° C | 79% | 1018.3 hPa | 0 mm | - | 0 W/m² | - |
| 1778036347 | 3.89° C | 79% | 1018.2 hPa | 0 mm | - | 0 W/m² | - |
| 1778035765 | 3.89° C | 78% | 1018.1 hPa | 0 mm | - | 0 W/m² | - |
| 1778035624 | 3.89° C | 78% | 1018.1 hPa | 0 mm | - | 0 W/m² | - |
| 1778034124 | 4.44° C | 78% | 1017.6 hPa | 0 mm | - | 0 W/m² | - |
| 1778033959 | 4.44° C | 76% | 1017.4 hPa | 0 mm | - | 0 W/m² | - |
| 1778033824 | 4.44° C | 76% | 1017.4 hPa | 0 mm | - | 0 W/m² | - |
| 1778033224 | 4.44° C | 76% | 1017.3 hPa | 0 mm | - | 5 W/m² | - |
| 1778032624 | 4.44° C | 76% | 1017.2 hPa | 0 mm | - | 11 W/m² | - |
| 1778032024 | 4.44° C | 78% | 1016.9 hPa | 0 mm | - | 18 W/m² | - |
| 1778031848 | 4.44° C | 78% | 1016.9 hPa | 0 mm | - | 21 W/m² | - |
| 1778031278 | 4.44° C | 79% | 1017 hPa | 0 mm | - | 32 W/m² | - |
| 1778030824 | 4.44° C | 79% | 1016.9 hPa | 0 mm | - | 42 W/m² | - |
| 1778030683 | 4.44° C | 81% | 1017.5 hPa | 0.25 mm | - | 51 W/m² | - |
| 1778030524 | 4.44° C | 81% | 1017.5 hPa | 0.25 mm | - | 51 W/m² | - |
| 1778030373 | 4.44° C | 81% | 1017.4 hPa | 0.25 mm | - | 69 W/m² | - |
| 1778030224 | 4.44° C | 81% | 1017.4 hPa | 0.25 mm | - | 69 W/m² | - |
| 1778029637 | 4.44° C | 80% | 1017 hPa | 0.25 mm | - | 77 W/m² | - |
| 1778028855 | 3.89° C | 81% | 1017.1 hPa | 0.25 mm | - | 54 W/m² | - |
| 1778028724 | 3.89° C | 81% | 1017.1 hPa | 0.25 mm | - | 54 W/m² | - |
| 1778028580 | 3.89° C | 82% | 1017.2 hPa | 0.25 mm | - | 47 W/m² | - |
* Rain latest hour (hover to see other rain measurements)
** Current wind speed in m/s (hover to see current wind gust speed)